H1 CPF 2 NER 2022 9 20 8 263 01 glonass138 H2 1805301 9138 43508 2022 9 20 0 0 0 2022 9 23 23 45 0 900 1 1 0 0 0 1 H9 10 0 59842 0.00000 0 -580025.575 17704042.644 -18362453.489 10 0 59842 900.00000 0 -1514878.546 19627312.194 -16233478.720 10 0 59842 1800.00000 0 -2186582.802 21359226.390 -13789471.451 10 0 59842 2700.00000 0 -2614045.379 22840302.839 -11077903.639 10 0 59842 3600.00000 0 -2827228.393 24018067.418 -8151418.783 10 0 59842 4500.00000 0 -2865631.408 24849197.367 -5066811.288 10 0 59842 5400.00000 0 -2776372.591 25301300.229 -1883926.385 10 0 59842 6300.00000 0 -2611950.406 25354254.556 1335498.271 10 0 59842 7200.00000 0 -2427780.834 25001056.557 4529026.861 10 0 59842 8100.00000 0 -2279614.472 24248137.458 7634732.517 10 0 59842 9000.00000 0 -2220942.840 23115138.356 10592394.063 10 0 59842 9900.00000 0 -2300503.519 21634151.984 13344659.238 10 0 59842 10800.00000 0 -2559989.598 19848462.914 15838152.204 10 0 59842 11700.00000 0 -3032060.273 17810838.512 18024504.207 10 0 59842 12600.00000 0 -3738736.795 15581441.585 19861287.790 10 0 59842 13500.00000 0 -4690251.905 13225451.150 21312836.960 10 0 59842 14400.00000 0 -5884402.006 10810489.761 22350937.894 10 0 59842 15300.00000 0 -7306430.405 8403963.729 22955377.109 10 0 59842 16200.00000 0 -8929447.950 6070426.081 23114336.738 10 0 59842 17100.00000 0 -10715375.092 3869071.062 22824629.250 10 0 59842 18000.00000 0 -12616367.626 1851463.708 22091766.785 10 0 59842 18900.00000 0 -14576668.238 59598.252 20929863.269 10 0 59842 19800.00000 0 -16534808.069 -1475634.385 19361370.416 10 0 59842 20700.00000 0 -18426067.496 -2735506.483 17416651.844 10 0 59842 21600.00000 0 -20185094.211 -3713996.974 15133402.549 10 0 59842 22500.00000 0 -21748569.577 -4417796.026 12555924.018 10 0 59842 23400.00000 0 -23057811.576 -4865770.886 9734268.285 10 0 59842 24300.00000 0 -24061204.912 -5087915.864 6723266.988 10 0 59842 25200.00000 0 -24716355.572 -5123831.222 3581464.067 10 0 59842 26100.00000 0 -24991878.373 -5020795.834 369973.046 10 0 59842 27000.00000 0 -24868741.338 -4831515.982 -2848718.358 10 0 59842 27900.00000 0 -24341109.367 -4611646.623 -6011972.294 10 0 59842 28800.00000 0 -23416650.883 -4417191.328 -9058228.570 10 0 59842 29700.00000 0 -22116294.014 -4301892.322 -11928211.243 10 0 59842 30600.00000 0 -20473442.295 -4314722.535 -14566089.521 10 0 59842 31500.00000 0 -18532682.906 -4497587.052 -16920569.439 10 0 59842 32400.00000 0 -16348041.945 -4883332.315 -18945894.543 10 0 59842 33300.00000 0 -13980860.284 -5494148.070 -20602735.866 10 0 59842 34200.00000 0 -11497379.401 -6340430.186 -21858953.927 10 0 59842 35100.00000 0 -8966138.468 -7420152.724 -22690218.377 10 0 59842 36000.00000 0 -6455291.430 -8718775.981 -23080473.858 10 0 59842 36900.00000 0 -4029955.869 -10209694.560 -23022243.799 10 0 59842 37800.00000 0 -1749703.555 -11855206.772 -22516767.069 10 0 59842 38700.00000 0 333703.750 -13607964.913 -21573965.583 10 0 59842 39600.00000 0 2178240.094 -15412845.812 -20212244.154 10 0 59842 40500.00000 0 3753124.146 -17209163.592 -18458126.911 10 0 59842 41400.00000 0 5039849.832 -18933132.424 -16345737.634 10 0 59842 42300.00000 0 6032697.626 -20520476.516 -13916134.206 10 0 59842 43200.00000 0 6738707.044 -21909078.575 -11216510.065 10 0 59842 44100.00000 0 7177113.282 -23041556.290 -8299277.984 10 0 59842 45000.00000 0 7378273.235 -23867659.268 -5221053.873 10 0 59842 45900.00000 0 7382127.427 -24346386.400 -2041560.085 10 0 59842 46800.00000 0 7236263.702 -24447735.113 1177530.631 10 0 59842 47700.00000 0 6993665.050 -24154009.369 4373788.194 10 0 59842 48600.00000 0 6710237.178 -23460631.624 7485232.247 10 0 59842 49500.00000 0 6442220.452 -22376424.594 10451529.973 10 0 59842 50400.00000 0 6243595.647 -20923350.863 13215161.533 10 0 59842 51300.00000 0 6163593.068 -19135720.804 15722530.830 10 0 59842 52200.00000 0 6244410.187 -17058901.439 17925000.444 10 0 59842 53100.00000 0 6519234.131 -14747579.486 19779831.013 10 0 59842 54000.00000 0 7010652.606 -12263650.269 21251007.393 10 0 59842 54900.00000 0 7729520.627 -9673819.460 22309936.034 10 0 59842 55800.00000 0 8674331.426 -7047016.583 22936000.413 10 0 59842 56700.00000 0 9831119.002 -4451726.750 23116964.000 10 0 59842 57600.00000 0 11173897.702 -1953350.521 22849212.990 10 0 59842 58500.00000 0 12665621.842 388299.274 22137833.804 10 0 59842 59400.00000 0 14259626.729 2521260.559 20996523.382 10 0 59842 60300.00000 0 15901492.273 4403351.480 19447333.257 10 0 59842 61200.00000 0 17531252.408 6003686.437 17520251.442 10 0 59842 62100.00000 0 19085858.836 7303715.957 15252629.254 10 0 59842 63000.00000 0 20501796.457 8297747.314 12688463.192 10 0 59842 63900.00000 0 21717740.943 8992924.407 9877545.068 10 0 59842 64800.00000 0 22677146.634 9408668.147 6874496.277 10 0 59842 65700.00000 0 23330655.376 9575601.415 3737704.739 10 0 59842 66600.00000 0 23638223.974 9534004.460 528185.386 10 0 59842 67500.00000 0 23570879.617 9331866.838 -2691613.182 10 0 59842 68400.00000 0 23112028.170 9022619.226 -5859031.897 10 0 59842 69300.00000 0 22258259.113 8662642.240 -8912429.383 10 0 59842 70200.00000 0 21019612.350 8308658.997 -11792390.141 10 0 59842 71100.00000 0 19419294.990 8015123.110 -14442888.237 10 0 59842 72000.00000 0 17492859.673 7831713.870 -16812382.896 10 0 59842 72900.00000 0 15286878.853 7801045.644 -18854824.156 10 0 59842 73800.00000 0 12857170.681 7956689.157 -20530548.727 10 0 59842 74700.00000 0 10266651.050 8321588.766 -21807048.663 10 0 59842 75600.00000 0 7582901.752 8906942.833 -22659598.301 10 0 59842 76500.00000 0 4875556.301 9711594.491 -23071727.913 10 0 59842 77400.00000 0 2213612.316 10721958.377 -23035535.588 10 0 59842 78300.00000 0 -337218.056 11912486.324 -22551832.136 10 0 59842 79200.00000 0 -2717010.238 13246652.322 -21630116.969 10 0 59842 80100.00000 0 -4873878.711 14678415.336 -20288386.077 10 0 59842 81000.00000 0 -6765885.654 16154098.623 -18552776.310 10 0 59842 81900.00000 0 -8362528.892 17614606.876 -16457053.144 10 0 59842 82800.00000 0 -9645748.844 18997888.399 -14041952.023 10 0 59842 83700.00000 0 -10610414.344 20241539.337 -11354385.999 10 0 59842 84600.00000 0 -11264268.840 21285441.026 -8446534.907 10 0 59842 85500.00000 0 -11627340.905 22074320.086 -5374833.633 10 0 59843 0.00000 0 -11730845.343 22560124.013 -2198879.184 10 0 59843 900.00000 0 -11615622.365 22704112.915 1019724.140 10 0 59843 1800.00000 0 -11330181.415 22478579.053 4218554.805 10 0 59843 2700.00000 0 -10928432.991 21868122.797 7335582.140 10 0 59843 3600.00000 0 -10467204.345 20870430.535 10310364.883 10 0 59843 4500.00000 0 -10003644.176 19496521.852 13085218.764 10 0 59843 5400.00000 0 -9592625.854 17770455.063 15606330.478 10 0 59843 6300.00000 0 -9284258.610 15728502.688 17824796.819 10 0 59843 7200.00000 0 -9121611.551 13417830.512 19697569.188 10 0 59843 8100.00000 0 -9138746.351 10894734.341 21188285.674 10 0 59843 9000.00000 0 -9359141.573 8222506.774 22267975.058 10 0 59843 9900.00000 0 -9794575.194 5469021.693 22915619.438 10 0 59843 10800.00000 0 -10444512.904 2704135.587 23118564.848 10 0 59843 11700.00000 0 -11296028.721 -2987.479 22872771.933 10 0 59843 12600.00000 0 -12324262.314 -2586517.207 22182901.575 10 0 59843 13500.00000 0 -13493395.096 -4986456.008 21062233.350 10 0 59843 14400.00000 0 -14758105.461 -7150892.521 19532417.630 10 0 59843 15300.00000 0 -16065443.316 -9037916.523 17623065.261 10 0 59843 16200.00000 0 -17357046.284 -10617115.976 15371181.778 10 0 59843 17100.00000 0 -18571605.261 -11870594.099 12820456.107 10 0 59843 18000.00000 0 -19647476.026 -12793464.191 10020416.840 10 0 59843 18900.00000 0 -20525326.959 -13393801.777 7025471.811 10 0 59843 19800.00000 0 -21150710.926 -13692056.502 3893849.393 10 0 59843 20700.00000 0 -21476452.065 -13719948.973 686462.276 10 0 59843 21600.00000 0 -21464745.744 -13518899.813 -2534283.743 10 0 59843 22500.00000 0 -21088881.838 -13138058.120 -5705712.036 10 0 59843 23400.00000 0 -20334517.389 -12632013.731 -8766103.598 10 0 59843 24300.00000 0 -19200443.806 -12058291.237 -11655906.773 10 0 59843 25200.00000 0 -17698815.297 -11474733.036 -14318903.649 10 0 59843 26100.00000 0 -15854828.239 -10936883.281 -16703309.507 10 0 59843 27000.00000 0 -13705864.496 -10495484.382 -18762783.329 10 0 59843 27900.00000 0 -11300134.371 -10194192.674 -20457329.463 10 0 59843 28800.00000 0 -8694876.049 -10067610.212 -21754072.877 10 0 59843 29700.00000 0 -5954186.786 -10139715.922 -22627893.359 10 0 59843 30600.00000 0 -3146576.320 -10422762.204 -23061906.922 10 0 59843 31500.00000 0 -342344.413 -10916683.163 -23047785.809 10 0 59843 32400.00000 0 2389108.726 -11609038.955 -22585911.722 10 0 59843 33300.00000 0 4981927.906 -12475498.188 -21685360.050 10 0 59843 34200.00000 0 7376295.119 -13480837.634 -20363716.064 10 0 59843 35100.00000 0 9520666.028 -14580416.986 -18646727.134 10 0 59843 36000.00000 0 11373659.144 -15722066.488 -16567797.998 10 0 59843 36900.00000 0 12905520.583 -16848308.102 -14167339.015 10 0 59843 37800.00000 0 14099105.048 -17898816.922 -11491980.054 10 0 59843 38700.00000 0 14950333.874 -18813019.572 -8593665.073 10 0 59843 39600.00000 0 15468112.542 -19532720.482 -5528644.903 10 0 59843 40500.00000 0 15673712.777 -20004645.816 -2356387.542 10 0 59843 41400.00000 0 15599646.453 -20182798.159 861573.064 10 0 59843 42300.00000 0 15288079.760 -20030522.957 4062827.473 10 0 59843 43200.00000 0 14788855.207 -19522199.726 7185297.501 10 0 59843 44100.00000 0 14157205.331 -18644486.675 10168436.009 10 0 59843 45000.00000 0 13451254.734 -17397066.060 12954396.569 10 0 59843 45900.00000 0 12729415.820 -15792858.375 15489150.603 10 0 59843 46800.00000 0 12047787.874 -13857695.564 17723530.692 10 0 59843 47700.00000 0 11457668.828 -11629465.969 19614180.201 10 0 59843 48600.00000 0 11003284.270 -9156765.544 21124391.272 10 0 59843 49500.00000 0 10719829.050 -6497110.241 22224815.475 10 0 59843 50400.00000 0 10631903.791 -3714782.704 22894033.647 10 0 59843 51300.00000 0 10752412.161 -878401.370 23118974.175 10 0 59843 52200.00000 0 11081965.605 1941688.427 22895171.656 10 0 59843 53100.00000 0 11608821.145 4676094.204 22226860.680 10 0 59843 54000.00000 0 12309355.704 7259016.817 21126902.474 10 0 59843 54900.00000 0 13149057.986 9630742.959 19616545.082 10 0 59843 55800.00000 0 14083997.265 11739886.668 17725020.847 10 0 59843 56700.00000 0 15062708.258 13545287.086 15488988.013 10 0 59843 57600.00000 0 16028413.541 15017483.677 12951826.276 10 0 59843 58500.00000 0 16921490.346 16139707.416 10162799.172 10 0 59843 59400.00000 0 17682077.873 16908346.676 7176098.976 10 0 59843 60300.00000 0 18252714.792 17332868.488 4049792.350 10 0 59843 61200.00000 0 18580894.889 17435198.743 844687.419 10 0 59843 62100.00000 0 18621431.914 17248588.008 -2376855.251 10 0 59843 63000.00000 0 18338532.455 16816011.464 -5552143.944 10 0 59843 63900.00000 0 17707487.955 16188171.416 -8619384.486 10 0 59843 64800.00000 0 16715913.104 15421187.867 -11518891.429 10 0 59843 65700.00000 0 15364477.120 14574075.892 -14194257.121 10 0 59843 66600.00000 0 13667096.148 13706117.574 -16593454.946 10 0 59843 67500.00000 0 11650577.891 12874240.565 -18669854.711 10 0 59843 68400.00000 0 9353732.834 12130514.739 -20383130.097 10 0 59843 69300.00000 0 6825989.047 11519873.100 -21700040.523 10 0 59843 70200.00000 0 4125568.289 11078153.187 -22595072.589 10 0 59843 71100.00000 0 1317299.390 10830541.321 -23050929.235 10 0 59843 72000.00000 0 -1529840.045 10790484.759 -23058857.824 10 0 59843 72900.00000 0 -4345351.625 10959116.833 -22618811.621 10 0 59843 73800.00000 0 -7059905.080 11325218.509 -21739442.312 10 0 59843 74700.00000 0 -9607976.957 11865717.166 -20437924.361 10 0 59843 75600.00000 0 -11930330.478 12546700.924 -18739615.129 10 0 59843 76500.00000 0 -13976234.606 13324905.294 -16677557.646 10 0 59843 77400.00000 0 -15705331.323 14149609.208 -14291835.822 10 0 59843 78300.00000 0 -17089074.860 14964860.421 -11628794.613 10 0 59843 79200.00000 0 -18111684.408 15711936.542 -8740140.085 10 0 59843 80100.00000 0 -18770571.982 16331938.060 -5681936.763 10 0 59843 81000.00000 0 -19076229.067 16768404.229 -2513521.493 10 0 59843 81900.00000 0 -19051578.090 16969841.667 703645.301 10 0 59843 82800.00000 0 -18730817.037 16892059.131 3907168.699 10 0 59843 83700.00000 0 -18157806.711 16500210.058 7034925.825 10 0 59843 84600.00000 0 -17384069.057 15770456.606 10026266.572 10 0 59843 85500.00000 0 -16466481.182 14691184.795 12823185.294 10 0 59844 0.00000 0 -15464762.350 13263719.219 15371440.854 10 0 59844 900.00000 0 -14438859.078 11502505.610 17621604.943 10 0 59844 1800.00000 0 -13446339.460 9434754.610 19530015.339 10 0 59844 2700.00000 0 -12539904.141 7099557.774 21059620.725 10 0 59844 3600.00000 0 -11765119.498 4546513.136 22180697.645 10 0 59844 4500.00000 0 -11158467.383 1833915.398 22871427.498 10 0 59844 5400.00000 0 -10745793.180 -973415.420 23118322.451 10 0 59844 6300.00000 0 -10541217.268 -3806578.210 22916492.024 10 0 59844 7200.00000 0 -10546555.736 -6595207.705 22269745.010 10 0 59844 8100.00000 0 -10751275.056 -9270156.785 21190524.283 10 0 59844 9000.00000 0 -11132983.156 -11766133.786 19699675.036 10 0 59844 9900.00000 0 -11658436.923 -14024185.939 17826050.080 10 0 59844 10800.00000 0 -12285024.437 -15993926.154 15605958.855 10 0 59844 11700.00000 0 -12962660.148 -17635410.683 13082469.854 10 0 59844 12600.00000 0 -13636013.485 -18920589.314 10304579.207 10 0 59844 13500.00000 0 -14246977.010 -19834267.498 7326260.933 10 0 59844 14400.00000 0 -14737269.641 -20374540.088 4205417.028 10 0 59844 15300.00000 0 -15051064.311 -20552678.536 1002747.899 10 0 59844 16200.00000 0 -15137528.045 -20392476.542 -2219434.418 10 0 59844 17100.00000 0 -14953165.797 -19929082.192 -5398426.518 10 0 59844 18000.00000 0 -14463867.560 -19207366.479 -8472362.512 10 0 59844 18900.00000 0 -13646570.829 -18279897.971 -11381426.611 10 0 59844 19800.00000 0 -12490466.793 -17204610.140 -14069024.792 10 0 59844 20700.00000 0 -10997698.218 -16042260.900 -16482891.761 10 0 59844 21600.00000 0 -9183518.594 -14853792.545 -18576111.080 10 0 59844 22500.00000 0 -7075905.044 -13697704.289 -20308028.324 10 0 59844 23400.00000 0 -4714640.725 -12627548.639 -21645039.434 10 0 59844 24300.00000 0 -2149904.722 -11689657.267 -22561239.341 10 0 59844 25200.00000 0 559571.983 -10921191.849 -23038918.829 10 0 59844 26100.00000 0 3348707.736 -10348601.341 -23068900.699 10 0 59844 27000.00000 0 6148537.281 -9986549.685 -22650709.534 10 0 59844 27900.00000 0 8888842.528 -9837357.957 -21792572.572 10 0 59844 28800.00000 0 11500838.114 -9890983.314 -20511252.276 10 0 59844 29700.00000 0 13919800.963 -10125534.470 -18831714.419 10 0 59844 30600.00000 0 16087535.478 -10508301.044 -16786638.373 10 0 59844 31500.00000 0 17954572.875 -10997252.639 -14415779.308 10 0 59844 32400.00000 0 19482014.333 -11542943.921 -11765194.639 10 0 59844 33300.00000 0 20642942.472 -12090745.039 -8886349.597 10 0 59844 34200.00000 0 21423343.504 -12583303.118 -5835119.182 10 0 59844 35100.00000 0 21822502.833 -12963130.950 -2670705.654 10 0 59844 36000.00000 0 21852858.747 -13175213.619 545507.618 10 0 59844 36900.00000 0 21539321.380 -13169523.081 3751143.773 10 0 59844 37800.00000 0 20918086.387 -12903334.556 6884038.647 10 0 59844 38700.00000 0 20034993.817 -12343246.853 9883442.312 10 0 59844 39600.00000 0 18943501.541 -11466821.174 12691192.723 10 0 59844 40500.00000 0 17702358.578 -10263768.868 15252839.024 10 0 59844 41400.00000 0 16373076.008 -8736637.402 17518693.055 10 0 59844 42300.00000 0 15017301.473 -6900964.759 19444789.017 10 0 59844 43200.00000 0 13694207.083 -4784894.517 20993733.209 10 0 59844 44100.00000 0 12457999.804 -2428266.190 22135427.815 10 0 59844 45000.00000 0 11355658.265 118782.778 22847655.082 10 0 59844 45900.00000 0 10424990.330 2797646.853 23116510.865 10 0 59844 46800.00000 0 9693092.494 5543439.675 22936679.193 10 0 59844 47700.00000 0 9175275.458 8287449.371 22311542.335 10 0 59844 48600.00000 0 8874500.878 10959761.359 21253123.801 10 0 59844 49500.00000 0 8781353.058 13491940.898 19781864.681 10 0 59844 50400.00000 0 8874547.061 15819664.659 17926236.775 10 0 59844 51300.00000 0 9121952.225 17885192.467 15722199.045 10 0 59844 52200.00000 0 9482088.332 19639576.524 13212506.926 10 0 59844 53100.00000 0 9906031.658 21044515.868 10445887.104 10 0 59844 54000.00000 0 10339650.468 22073778.465 7476093.150 10 0 59844 54900.00000 0 10726075.285 22714131.156 4360860.035 10 0 59844 55800.00000 0 11008298.955 22965738.197 1160777.973 10 0 59844 56700.00000 0 11131795.595 22842011.648 -2061892.101 10 0 59844 57600.00000 0 11047046.432 22368920.025 -5244437.675 10 0 59844 58500.00000 0 10711864.305 21583784.724 -8324923.681 10 0 59844 59400.00000 0 10093417.015 20533615.602 -11243406.417 10 0 59844 60300.00000 0 9169862.559 19273056.691 -13943107.755 10 0 59844 61200.00000 0 7931525.846 17862029.624 -16371525.793 10 0 59844 62100.00000 0 6381566.129 16363175.016 -18481459.739 10 0 59844 63000.00000 0 4536106.026 14839200.375 -20231928.748 10 0 59844 63900.00000 0 2423816.040 13350246.767 -21588966.793 10 0 59844 64800.00000 0 84971.356 11951385.226 -22526278.460 10 0 59844 65700.00000 0 -2429980.026 10690347.935 -23025743.498 10 0 59844 66600.00000 0 -5062278.360 9605588.988 -23077761.010 10 0 59844 67500.00000 0 -7747065.165 8724755.175 -22681427.464 10 0 59844 68400.00000 0 -10415856.446 8063629.797 -21844545.832 10 0 59844 69300.00000 0 -12999173.633 7625592.491 -20583466.341 10 0 59844 70200.00000 0 -15429223.461 7401616.267 -18922762.494 10 0 59844 71100.00000 0 -17642516.114 7370800.505 -16894748.899 10 0 59844 72000.00000 0 -19582313.495 7501416.236 -14538850.488 10 0 59844 72900.00000 0 -21200806.703 7752418.691 -11900835.326 10 0 59844 73800.00000 0 -22460933.028 8075362.564 -9031925.750 10 0 59844 74700.00000 0 -23337757.631 8416638.713 -5987804.993 10 0 59844 75600.00000 0 -23819363.318 8719937.550 -2827538.351 10 0 59844 76500.00000 0 -23907212.142 8928834.915 387570.360 10 0 59844 77400.00000 0 -23615964.579 8989391.154 3595164.929 10 0 59844 78300.00000 0 -22972764.619 8852653.531 6733042.597 10 0 59844 79200.00000 0 -22016021.349 8476956.196 9740356.386 10 0 59844 80100.00000 0 -20793738.503 7829920.424 12558790.663 10 0 59844 81000.00000 0 -19361462.281 6890070.404 15133687.440 10 0 59844 81900.00000 0 -17779933.426 5647995.865 17415101.887 10 0 59844 82800.00000 0 -16112541.814 4107011.836 19358766.952 10 0 59844 83700.00000 0 -14422689.786 2283286.646 20926948.867 10 0 59844 84600.00000 0 -12771174.065 205431.373 22089177.463 10 0 59844 85500.00000 0 -11213695.266 -2086433.646 22822837.472 10 0 59845 0.00000 0 -9798598.630 -4542097.876 23113609.674 10 0 59845 900.00000 0 -8564939.147 -7103109.232 22955753.482 10 0 59845 1800.00000 0 -7540953.413 -9704973.714 22352225.000 10 0 59845 2700.00000 0 -6742999.231 -12279620.576 21314628.364 10 0 59845 3600.00000 0 -6175009.126 -14758028.563 19863000.144 10 0 59845 4500.00000 0 -5828479.795 -17072906.246 18025430.308 10 0 59845 5400.00000 0 -5682998.139 -19161315.345 15837526.136 10 0 59845 6300.00000 0 -5707281.781 -20967128.075 13341728.438 10 0 59845 7200.00000 0 -5860690.324 -22443215.834 10586492.563 10 0 59845 8100.00000 0 -6095143.508 -23553277.578 7625349.448 10 0 59845 9000.00000 0 -6357364.940 -24273230.886 4515864.610 10 0 59845 9900.00000 0 -6591356.006 -24592106.886 1318515.436 10 0 59845 10800.00000 0 -6740994.421 -24512411.125 -1904491.041 10 0 59845 11700.00000 0 -6752646.276 -24049934.969 -5090436.170 10 0 59845 12600.00000 0 -6577679.724 -23233025.525 -8177318.793 10 0 59845 13500.00000 0 -6174772.390 -22101345.125 -11105070.474 10 0 59845 14400.00000 0 -5511913.460 -20704173.185 -13816732.204 10 0 59845 15300.00000 0 -4568014.420 -19098322.692 -16259568.655 10 0 59845 16200.00000 0 -3334059.201 -17345759.842 -18386097.703 10 0 59845 17100.00000 0 -1813744.182 -15511027.702 -20155014.859 10 0 59845 18000.00000 0 -23580.272 -13658582.827 -21531994.538 10 0 59845 18900.00000 0 2007547.877 -11850156.954 -22490352.944 10 0 59845 19800.00000 0 4239347.606 -10142254.396 -23011560.241 10 0 59845 20700.00000 0 6621568.898 -8583889.644 -23085592.766 10 0 59845 21600.00000 0 9095879.755 -7214659.086 -22711119.282 10 0 59845 22500.00000 0 11598088.474 -6063226.401 -21895518.421 10 0 59845 23400.00000 0 14060620.584 -5146283.633 -20654727.651 10 0 59845 24300.00000 0 16415147.842 -4468029.846 -19012927.243 10 0 59845 25200.00000 0 18595260.414 -4020187.498 -17002065.664 10 0 59845 26100.00000 0 20539071.589 -3782554.313 -14661235.803 10 0 59845 27000.00000 0 22191647.286 -3724065.936 -12035914.138 10 0 59845 27900.00000 0 23507159.857 -3804323.467 -9177077.450 10 0 59845 28800.00000 0 24450677.069 -3975520.565 -6140214.157 10 0 59845 29700.00000 0 24999512.370 -4184688.153 -2984249.232 10 0 59845 30600.00000 0 25144080.731 -4376161.489 229596.639 10 0 59845 31500.00000 0 24888224.913 -4494165.164 3438991.550 10 0 59845 32400.00000 0 24248999.084 -4485406.617 6581697.745 10 0 59845 33300.00000 0 23255919.269 -4301568.487 9596774.608 10 0 59845 34200.00000 0 21949712.335 -3901594.387 12425756.045 10 0 59845 35100.00000 0 20380616.025 -3253671.364 15013779.695 10 0 59845 36000.00000 0 18606301.121 -2336825.016 17310646.414 10 0 59845 36900.00000 0 16689502.476 -1142059.427 19271789.824 10 0 59845 37800.00000 0 14695457.557 327006.934 20859137.609 10 0 59845 38700.00000 0 12689258.943 2054037.312 22041848.360 10 0 59845 39600.00000 0 10733230.734 4010410.550 22796910.020 10 0 59845 40500.00000 0 8884437.661 6156176.321 23109588.660 10 0 59845 41400.00000 0 7192430.073 8441493.651 22973718.954 10 0 59845 42300.00000 0 5697318.341 10808494.479 22391830.549 10 0 59845 43200.00000 0 4428256.442 13193496.366 21375107.477 10 0 59845 44100.00000 0 3402397.641 15529473.663 19943180.709 10 0 59845 45000.00000 0 2624365.670 17748685.342 18123757.008 10 0 59845 45900.00000 0 2086263.286 19785350.807 15952090.324 10 0 59845 46800.00000 0 1768217.698 21578262.492 13470304.948 10 0 59845 47700.00000 0 1639439.753 23073226.099 10726582.785 10 0 59845 48600.00000 0 1659752.036 24225226.141 7774229.840 10 0 59845 49500.00000 0 1781520.995 25000225.559 4670639.717 10 0 59845 50400.00000 0 1951910.866 25376523.209 1476174.366 10 0 59845 51300.00000 0 2115363.263 25345611.580 -1747015.789 10 0 59845 52200.00000 0 2216196.321 24912498.106 -4936208.696 10 0 59845 53100.00000 0 2201212.150 24095476.238 -8029339.816 10 0 59845 54000.00000 0 2022200.701 22925355.826 -10966218.602 10 0 59845 54900.00000 0 1638232.666 21444185.429 -13689707.626 10 0 59845 55800.00000 0 1017643.008 19703520.745 -16146840.406 10 0 59845 56700.00000 0 139620.053 17762312.617 -18289855.573 10 0 59845 57600.00000 0 -1004668.020 15684503.941 -20077126.866 10 0 59845 58500.00000 0 -2411457.609 13536436.979 -21473970.810 10 0 59845 59400.00000 0 -4064311.619 11384180.124 -22453316.678 10 0 59845 60300.00000 0 -5934582.748 9290886.117 -22996226.263 10 0 59845 61200.00000 0 -7982399.029 7314292.014 -23092254.073 10 0 59845 62100.00000 0 -10158130.782 5504464.702 -22739641.755 10 0 59845 63000.00000 0 -12404278.001 3901885.082 -21945343.798 10 0 59845 63900.00000 0 -14657699.689 2535949.626 -20724884.656 10 0 59845 64800.00000 0 -16852092.552 1423950.247 -19102050.655 10 0 59845 65700.00000 0 -18920616.197 570573.343 -17108422.957 10 0 59845 66600.00000 0 -20798555.789 -32062.784 -14782760.847 10 0 59845 67500.00000 0 -22425911.732 -403835.502 -12170247.307 10 0 59845 68400.00000 0 -23749808.881 -575536.021 -9321611.403 10 0 59845 69300.00000 0 -24726625.203 -587324.967 -6292144.371 10 0 59845 70200.00000 0 -25323751.548 -486791.491 -3140628.340 10 0 59845 71100.00000 0 -25520909.412 -326698.529 71801.761 10 0 59845 72000.00000 0 -25310971.984 -162509.907 3282841.079 10 0 59845 72900.00000 0 -24700254.484 -49804.050 6430219.682 10 0 59845 73800.00000 0 -23708261.834 -41683.789 9452906.205 10 0 59845 74700.00000 0 -22366904.357 -186291.764 12292286.989 10 0 59845 75600.00000 0 -20719214.313 -524536.534 14893298.146 10 0 59845 76500.00000 0 -18817616.712 -1088125.583 17205488.936 10 0 59845 77400.00000 0 -16721826.392 -1897988.532 19183996.148 10 0 59845 78300.00000 0 -14496458.645 -2963157.637 20790411.119 10 0 59845 79200.00000 0 -12208452.452 -4280153.558 21993523.031 10 0 59845 80100.00000 0 -9924413.028 -5832903.385 22769924.467 10 0 59845 81000.00000 0 -7707983.620 -7593195.847 23104467.780 10 0 59845 81900.00000 0 -5617355.140 -9521656.345 22990563.540 10 0 59845 82800.00000 0 -3703016.653 -11569202.779 22430315.083 10 0 59845 83700.00000 0 -2005839.703 -13678923.108 21434486.162 10 0 59845 84600.00000 0 -555575.711 -15788297.935 20022301.636 10 0 59845 85500.00000 0 630171.246 -17831676.564 18221084.222 99